STARLINK-36207

Last updated on Fri Dec 19 2025 00:02:09 GMT+0000 (Coordinated Universal Time)

1 67014U 25293M 25351.83335648 -.00990673 31573-3 -21814-2 0 9991 2 67014 69.9936 309.0139 0004130 268.0015 129.2032 15.97864930 2381
UTC large
Height (km)
Speed (km/s)
/
Latitude / Longitude
Inclination (degrees)
Orbital Period (minutes)
Azimuth
Elevation
Range (km)
Doppler Factor

Next 0 passes for location: London (51.5072 / 0.1276)

Sorry there are no passes over London.